www.pogodaiklimat.ru

Погода и климат >> Архив погоды >> Дания >> Виндебаек


ПОГОДА в Виндебаеке

  • Прогноз погоды в Виндебаеке
  • Монитор погоды в Виндебаеке

АРХИВ ПОГОДЫ в Виндебаеке

Время (UTC), дата Ветер
(напр.,м/с)
 
Видим.   Явления Облачность Т
(С)
Тd
(С)
f
(%)
Тe
(С)
Тes
(С)
Комфортность P
(гПа)
Po
(гПа)
Тmin
(С)
Tmax
(С)
R
(мм)
R24
(мм)
S
(см)
16 16.08 З 5 23 км н/о +18.7 +11.3 62 +19 +19 1013.5 1013.0
17 16.08 З 5 24 км н/о +19.0 +12.4 66 +20 +20 1013.6 1013.1
18 16.08 З 3 27 км н/о +17.3 +10.6 65 +17 +17 1013.8 1013.2 +16.3 +20.4
19 16.08 ЮЗ 3 25 км н/о +17.2 +12.0 71 +17 +17 1014.0 1013.5
20 16.08 Ю 4 24 км н/о +16.8 +13.1 79 +16 +16 1013.9 1013.3
21 16.08 Ю 3 24 км н/о +16.7 +13.3 80 +16 +16 1013.7 1013.2
22 16.08 Ю 6 10 км н/о +17.1 +13.4 79 +16 +16 1013.4 1012.8
23 16.08 ЮВ 7 17 км н/о +17.3 +14.7 85 +16 +16 1012.6 1012.0
00 17.08 Ю 8 17 км {дымка} н/о +17.6 +15.2 86 +17 +17 1012.2 1011.6
01 17.08 Ю 7 18 км н/о +17.5 +15.3 87 +17 +17 1011.4 1010.9
02 17.08 Ю 9 18 км н/о +17.7 +15.5 87 +17 +17 1010.7 1010.1
03 17.08 Ю 9 18 км н/о +17.7 +15.1 85 +17 +17 1009.9 1009.4
04 17.08 Ю 8 16 км н/о +17.6 +15.1 85 +17 +17 1009.7 1009.2
05 17.08 Ю 10 11 км морось {дождь} н/о +17.2 +14.0 81 +16 +16 1009.4 1008.9 0.1
06 17.08 Ю 9 11 км морось {дождь} н/о +16.7 +14.3 86 +15 +15 1009.2 1008.7 +16.5 +17.8 0.2
07 17.08 Ю 9 8000 м слаб. дождь {морось} н/о +16.2 +14.8 91 +14 +14 1009.0 1008.5 0.7
08 17.08 Ю 9 12 км слаб. дождь н/о +16.6 +15.1 91 +15 +15 1008.8 1008.2 0.4
09 17.08 Ю 9 15 км в посл. час морось {дождь} н/о +17.0 +14.7 86 +16 +16 1008.4 1007.8 1
10 17.08 Ю 7 15 км н/о +17.6 +15.3 86 +17 +17 1008.0 1007.5
11 17.08 Ю 8 13 км слаб. ливневой дождь н/о +18.0 +16.0 88 +17 +17 1007.6 1007.0
12 17.08 Ю 8 13 км в посл. час дождь {ливн. осадки} н/о +17.7 +16.2 91 +17 +17 1007.2 1006.7 0.5
13 17.08 Ю 8 19 км н/о +19.7 +16.2 80 +21 +21 комфорт 1007.1 1006.6
14 17.08 Ю 7 17 км н/о +19.2 +15.8 81 +20 +20 1007.1 1006.6
15 17.08 ЮЗ 8 6000 м дождь н/о +18.0 +16.6 92 +17 +17 1007.4 1006.9 0.5
16 17.08 Ю 5 14 км в посл. час дождь {ливн. осадки} н/о +18.6 +17.2 92 +19 +19 1007.2 1006.6 0.6
17 17.08 ЮЗ 5 16 км н/о +18.7 +17.0 90 +20 +20 1007.3 1006.7
18 17.08 ЮЗ 5 3100 м сильн. дождь {ливн. осадки} н/о +18.0 +17.2 95 +18 +18 1007.4 1006.8 +16.1 +19.9 2
19 17.08 ЮЗ 5 11 км в посл. час дождь {ливн. осадки} н/о +17.7 +17.3 98 +17 +17 1007.3 1006.8 0.3
20 17.08 ЮЗ 3 11 км н/о +17.5 +16.9 96 +17 +17 1007.2 1006.6
21 17.08 Ю 4 11 км {ливн. осадки, дождь} н/о +17.5 +17.0 97 +17 +17 1007.0 1006.5 0.3
22 17.08 Ю 3 4100 м дымка н/о +17.7 +17.4 98 +18 +18 1006.8 1006.3
23 17.08 Ю 5 6000 м дымка н/о +17.9 +17.5 98 +18 +18 1007.1 1006.6
00 18.08 Ю 6 6000 м слаб. ливневой дождь н/о +17.9 +17.4 97 +17 +17 1006.7 1006.1 0.1
01 18.08 Ю 6 9000 м дымка н/о +17.9 +17.4 97 +17 +17 1006.2 1005.6
02 18.08 ЮЗ 5 8000 м дымка н/о +17.6 +17.2 98 +17 +17 1005.9 1005.4
03 18.08 ЮЗ 5 9000 м дымка н/о +17.6 +17.2 98 +17 +17 1006.0 1005.4
04 18.08 ЮЗ 4 8000 м дымка н/о +17.3 +16.9 97 +17 +17 1005.7 1005.2
05 18.08 Ю 3 7000 м дымка н/о +17.8 +17.3 97 +18 +18 1005.6 1005.0
06 18.08 ЮЗ 4 7000 м дымка н/о +17.6 +17.1 97 +17 +17 1005.7 1005.2 +17.0 +18.0
07 18.08 ЮЗ 3 7000 м дымка н/о +17.8 +17.0 95 +18 +18 1005.5 1004.9
08 18.08 ЮЗ 3 10 км н/о +18.3 +17.1 93 +19 +19 1005.4 1004.9
09 18.08 Ю 3 9000 м дымка н/о +18.3 +17.5 95 +19 +19 1005.3 1004.8
10 18.08 Ю 4 9000 м слаб. ливневой дождь н/о +18.5 +17.4 93 +19 +19 1005.2 1004.6
11 18.08 Ю 5 11 км {ливн. осадки} н/о +18.4 +17.2 93 +19 +19 1005.4 1004.8
12 18.08 Ю 5 10 км {ливн. осадки, дождь} н/о +18.3 +17.1 93 +19 +19 1004.7 1004.1 0.0
13 18.08 Ю 4 5000 м морось {дождь} н/о +18.2 +17.2 94 +18 +18 1004.8 1004.3
14 18.08 ЮЗ 2 11 км слаб. ливневой дождь н/о +16.3 +15.3 94 +16 +16 1004.5 1003.9 0.1
15 18.08 ЮВ 3 7000 м дымка {ливн. осадки, дождь} н/о +16.9 +16.2 96 +17 +17 1004.0 1003.5 0.1
16 18.08 Ю 5 9000 м морось {дождь} н/о +17.1 +16.8 98 +16 +16 1004.2 1003.6 0.6
17 18.08 З 5 14 км в посл. час морось н/о +16.4 +15.6 95 +16 +16 1004.4 1003.8
18 18.08 З 5 21 км {ливн. осадки, дождь} н/о +16.1 +15.0 93 +15 +15 1004.7 1004.1 +16.0 +19.0 0.6
19 18.08 З 4 21 км н/о +15.6 +14.5 93 +15 +15 1005.4 1004.8
20 18.08 З 5 17 км н/о +15.6 +14.8 95 +14 +14 1006.1 1005.5
21 18.08 З 5 15 км н/о +15.5 +14.5 94 +14 +14 1006.8 1006.2
22 18.08 З 5 15 км н/о +15.4 +14.2 93 +14 +14 1007.2 1006.7
23 18.08 З 5 15 км н/о +15.2 +13.9 92 +14 +14 1007.6 1007.0
00 19.08 ЮЗ 4 13 км н/о +15.0 +13.9 93 +14 +14 1008.4 1007.8
01 19.08 З 4 13 км н/о +14.9 +14.0 94 +14 +14 1008.7 1008.2
02 19.08 ЮЗ 4 11 км н/о +15.0 +14.3 96 +14 +14 1008.7 1008.2
03 19.08 ЮЗ 5 12 км н/о +15.4 +14.6 95 +14 +14 1009.6 1009.1
04 19.08 ЮЗ 6 10 км н/о +15.5 +14.7 95 +14 +14 1009.9 1009.4
05 19.08 ЮЗ 5 9000 м дымка н/о +15.7 +14.9 95 +14 +14 1010.7 1010.1
06 19.08 ЮЗ 6 8000 м дымка н/о +16.5 +15.5 94 +15 +15 1010.7 1010.1 +14.7 +16.5
07 19.08 ЮЗ 6 9000 м дымка н/о +17.5 +15.6 89 +17 +17 1011.1 1010.6
08 19.08 ЮЗ 7 12 км н/о +17.9 +15.1 84 +17 +17 1011.3 1010.7
09 19.08 ЮЗ 8 13 км {дымка} н/о +17.9 +14.2 79 +17 +17 1011.7 1011.1
10 19.08 ЮЗ 7 16 км н/о +19.2 +15.0 77 +20 +20 1011.9 1011.4
11 19.08 ЮЗ 7 12 км н/о +18.4 +15.5 83 +18 +18 1012.3 1011.7
12 19.08 ЮЗ 8 17 км в посл. час дождь {ливн. осадки} н/о +18.4 +15.1 81 +18 +18 1013.0 1012.4 0.3
13 19.08 ЮЗ 9 17 км н/о +19.4 +13.8 70 +20 +20 1013.4 1012.9
14 19.08 ЮЗ 8 17 км н/о +19.3 +14.4 73 +20 +20 1013.9 1013.4
15 19.08 ЮЗ 8 17 км н/о +20.0 +14.6 71 +22 +22 комфорт 1014.3 1013.8
16 19.08 З 8 19 км н/о +19.5 +12.8 65 +20 +20 1015.0 1014.4
17 19.08 З 7 23 км н/о +19.2 +12.4 65 +20 +20 1015.3 1014.7
18 19.08 З 8 17 км н/о +18.0 +12.7 71 +17 +17 1016.0 1015.4 +16.5 +20.2
19 19.08 ЮЗ 5 25 км в посл. час дождь {ливн. осадки} н/о +17.1 +12.7 75 +17 +17 1016.3 1015.8
20 19.08 ЮЗ 4 28 км в посл. час морось {ливн. осадки} н/о +15.8 +13.0 83 +15 +15 1016.7 1016.1 0.1
21 19.08 ЮЗ 5
{12}
19 км {ливн. осадки, дождь} н/о +15.9 +13.6 86 +15 +15 1016.8 1016.2 0.1
22 19.08 ЮЗ 5 20 км н/о +16.0 +14.0 88 +15 +15 1017.0 1016.4
23 19.08 ЮЗ 5 21 км н/о +16.0 +13.4 85 +15 +15 1017.3 1016.7
00 20.08 ЮЗ 5
{12}
17 км {ливн. осадки, дождь} н/о +15.4 +13.2 87 +14 +14 1017.7 1017.1
01 20.08 ЮЗ 5 16 км н/о +15.8 +13.7 87 +15 +15 1017.8 1017.3
02 20.08 ЮЗ 4 22 км н/о +16.1 +13.6 85 +15 +15 1018.1 1017.6
03 20.08 Ю 4 18 км {дымка} н/о +16.2 +14.4 89 +15 +15 1018.0 1017.4
04 20.08 Ю 5 13 км н/о +16.7 +15.4 92 +16 +16 1018.1 1017.6
05 20.08 Ю 5 14 км н/о +16.7 +14.8 89 +16 +16 1018.3 1017.8
06 20.08 ЮЗ 6 14 км {дымка} н/о +16.3 +13.3 82 +15 +15 1018.8 1018.2 +15.4 +17.9
07 20.08 ЮЗ 6 15 км н/о +17.3 +13.8 80 +17 +17 1019.3 1018.8
08 20.08 Ю 6 15 км н/о +18.4 +14.7 79 +18 +18 1019.7 1019.1
09 20.08 ЮЗ 8 13 км н/о +18.1 +13.2 73 +17 +17 1020.0 1019.4
10 20.08 ЮЗ 8 14 км н/о +18.6 +13.4 72 +18 +18 1020.3 1019.7
11 20.08 ЮЗ 8 16 км н/о +19.0 +13.9 72 +19 +19 1020.3 1019.8
12 20.08 ЮЗ 9 17 км н/о +19.4 +13.1 67 +20 +20 1020.5 1019.9
13 20.08 ЮЗ 8 17 км н/о +19.9 +13.3 66 +21 +21 комфорт 1020.8 1020.2
14 20.08 ЮЗ 6 16 км н/о +20.1 +13.8 67 +22 +22 комфорт 1020.8 1020.2
15 20.08 ЮЗ 6 16 км н/о +20.3 +13.5 65 +22 +22 комфорт 1021.3 1020.8
16 20.08 З 5 20 км н/о +20.3 +9.3 49 +22 +22 комфорт 1021.4 1020.9
17 20.08 З 4 23 км н/о +19.8 +9.9 53 +21 +21 комфорт 1021.7 1021.2
18 20.08 ЮЗ 3 23 км н/о +18.8 +12.1 65 +20 +20 1022.0 1021.5 +16.3 +21.0
19 20.08 ЮЗ 3 20 км н/о +17.7 +12.5 72 +18 +18 1022.5 1021.9
20 20.08 З 2 19 км н/о +16.6 +11.9 74 +17 +17 1022.8 1022.3
21 20.08 ЮЗ 2 17 км н/о +16.0 +11.9 77 +16 +16 1023.1 1022.5
22 20.08 З 3 16 км н/о +16.0 +12.7 81 +16 +16 1023.3 1022.7
23 20.08 З 4 16 км н/о +16.3 +13.4 83 +16 +16 1023.6 1023.0
00 21.08 З 3 16 км н/о +15.2 +12.3 83 +15 +15 1023.6 1023.0
01 21.08 З 3 15 км н/о +14.2 +11.6 84 +13 +13 1023.9 1023.3
02 21.08 З 3 15 км н/о +13.6 +11.5 87 +13 +13 1024.1 1023.5
03 21.08 З 3 13 км н/о +13.8 +12.2 90 +13 +13 1024.3 1023.8
04 21.08 З 4 12 км н/о +14.1 +12.6 91 +13 +13 1024.6 1024.0
05 21.08 З 4 11 км н/о +14.4 +13.1 92 +13 +13 1025.1 1024.5
06 21.08 З 4 13 км н/о +15.5 +13.2 86 +14 +14 1025.6 1025.0 +13.6 +18.8
07 21.08 З 5 16 км н/о +16.8 +12.8 77 +16 +16 1025.8 1025.2
08 21.08 З 5 18 км н/о +17.7 +12.2 70 +17 +17 1025.9 1025.4
09 21.08 З 6 18 км н/о +18.9 +12.3 66 +19 +19 1026.1 1025.5
10 21.08 З 6 16 км в посл. час дождь {ливн. осадки} н/о +17.2 +13.0 76 +16 +16 1026.3 1025.8
11 21.08 З 5 19 км в посл. час дождь {ливн. осадки} н/о +18.8 +13.4 71 +19 +19 1026.4 1025.8
12 21.08 З 7 21 км {ливн. осадки, дождь} н/о +19.3 +9.4 53 +20 +20 1026.5 1026.0 0.0
13 21.08 З 6 27 км н/о +20.2 +6.8 42 +21 +21 комфорт 1026.7 1026.2
14 21.08 СЗ 6 20 км н/о +19.5 +9.9 54 +20 +20 1026.9 1026.3
15 21.08 СЗ 5 23 км н/о +19.8 +8.2 47 +21 +21 комфорт 1027.3 1026.8
16 21.08 СЗ 4 21 км н/о +19.6 +9.3 51 +21 +21 комфорт 1027.5 1026.9
17 21.08 СЗ 3 22 км н/о +18.9 +9.8 55 +20 +20 1027.4 1026.9
18 21.08 СЗ 2 24 км н/о +17.9 +10.2 61 +19 +19 1027.6 1027.1 +15.5 +20.4
19 21.08 ЮЗ 4 19 км н/о +16.9 +12.6 76 +17 +17 1027.9 1027.3
20 21.08 ЮЗ 2 18 км н/о +16.2 +12.4 78 +16 +16 1028.0 1027.5
21 21.08 ЮЗ 2 17 км н/о +15.9 +12.7 81 +16 +16 1028.2 1027.6
22 21.08 ЮЗ 3 16 км н/о +16.0 +13.6 86 +15 +15 1028.3 1027.7
23 21.08 ЮЗ 4 16 км н/о +16.6 +14.4 87 +16 +16 1028.3 1027.8
00 22.08 ЮЗ 3 16 км н/о +16.2 +14.2 88 +16 +16 1028.2 1027.7
01 22.08 ЮЗ 3 14 км н/о +15.8 +14.1 90 +15 +15 1028.3 1027.7
02 22.08 Ю 4 16 км н/о +16.2 +14.3 89 +16 +16 1028.2 1027.6
03 22.08 Ю 4 14 км н/о +16.4 +14.6 89 +16 +16 1028.1 1027.5
04 22.08 ЮЗ 4 14 км н/о +16.2 +14.6 90 +16 +16 1028.0 1027.5
05 22.08 Ю 4 15 км н/о +17.1 +15.0 87 +17 +17 1027.8 1027.3
06 22.08 Ю 7 16 км н/о +17.4 +14.5 83 +16 +16 1027.9 1027.4 +15.0 +17.9
07 22.08 Ю 7 15 км н/о +18.2 +14.6 80 +18 +18 1028.1 1027.5
08 22.08 Ю 6 14 км н/о +18.6 +14.7 78 +19 +19 1028.1 1027.5
09 22.08 Ю 7 14 км н/о +18.9 +14.3 75 +19 +19 1027.8 1027.2
10 22.08 Ю 7 16 км н/о +19.5 +14.6 73 +21 +21 комфорт 1027.5 1027.0
11 22.08 Ю 6 16 км н/о +20.3 +14.9 71 +23 +23 комфорт 1027.2 1026.7
12 22.08 Ю 5 17 км н/о +20.9 +15.2 70 +24 +24 комфорт 1026.7 1026.2
13 22.08 Ю 4 16 км н/о +21.7 +15.9 70 +25 +25 комфорт 1026.3 1025.7
14 22.08 ЮВ 4 15 км н/о +21.8 +16.2 70 +26 +26 душно 1025.6 1025.1
15 22.08 ЮВ 4 15 км н/о +20.9 +15.9 73 +24 +24 комфорт 1025.2 1024.7
16 22.08 ЮВ 5 15 км н/о +20.6 +15.5 73 +24 +24 комфорт 1024.7 1024.1
17 22.08 ЮВ 5 14 км н/о +19.7 +16.3 81 +22 +22 комфорт 1024.3 1023.8
18 22.08 ЮВ 4 13 км н/о +18.9 +16.7 87 +20 +20 1024.4 1023.8 +17.3 +22.0
19 22.08 ЮВ 2 13 км н/о +17.8 +15.7 88 +19 +19 1024.9 1024.4
20 22.08 штиль 0 18 км н/о +16.9 +14.7 87 +17 +17 1025.0 1024.5
21 22.08 Ю 3 14 км {дымка} н/о +17.8 +16.7 93 +18 +18 1024.8 1024.2
22 22.08 З 2 17 км н/о +17.2 +14.8 86 +17 +17 1024.8 1024.3
23 22.08 З 2 20 км н/о +17.5 +14.6 83 +18 +18 1025.0 1024.4
00 23.08 З 2 12 км {дымка} н/о +15.4 +13.5 88 +15 +15 1025.1 1024.5
01 23.08 З 2 8000 м дымка н/о +14.2 +12.7 91 +14 +14 1025.1 1024.5
02 23.08 З 2 7000 м дымка н/о +14.4 +12.7 90 +14 +14 1025.2 1024.6
03 23.08 З 3 10 км {дымка} н/о +14.7 +11.5 81 +14 +14 1025.0 1024.5
04 23.08 З 2 13 км н/о +16.2 +11.9 76 +16 +16 1025.1 1024.6
05 23.08 З 2 15 км н/о +16.1 +11.9 76 +16 +16 1025.1 1024.6
06 23.08 ЮЗ 4 14 км {дымка} н/о +17.8 +13.3 75 +18 +18 1025.4 1024.9 +13.9 +18.9
07 23.08 Ю 4 13 км н/о +19.7 +15.8 78 +22 +22 комфорт 1025.7 1025.1
08 23.08 ЮЗ 3 17 км н/о +20.6 +13.6 64 +23 +23 комфорт 1026.0 1025.4
09 23.08 З 6 14 км н/о +21.3 +12.5 57 +24 +24 комфорт 1026.0 1025.5
10 23.08 ЮЗ 7 17 км н/о +21.9 +13.4 58 +25 +25 комфорт 1026.1 1025.5
11 23.08 ЮЗ 6 19 км н/о +22.4 +13.1 56 +25 +25 комфорт 1026.2 1025.7
12 23.08 З 6 18 км н/о +23.1 +12.8 52 +26 +26 жарко 1026.1 1025.5
13 23.08 З 6 25 км н/о +23.6 +8.2 37 +24 +24 комфорт 1025.7 1025.1
14 23.08 З 6 28 км н/о +23.7 +10.1 42 +25 +25 комфорт 1025.6 1025.0
15 23.08 З 5 26 км н/о +24.1 +11.5 45 +26 +26 жарко 1025.5 1024.9
16 23.08 СЗ 5 29 км н/о +23.9 +11.0 44 +25 +25 комфорт 1025.5 1025.0

 

Местоположение метеостанции Виндебаек (Дания): широта 54.88 долгота 12.18 высота над уровнем моря 5 м.

В архиве по умолчанию представлена погода в Виндебаеке за последнюю неделю. Архивные данные за месяц целиком и за предыдущие месяцы, начиная с января 2011 года, Вы можете получить, выбрав интересующий диапазон дат из раскрывающегося списка и нажав кнопку "Ввод!".


*Определитесь, кто Вы:
робот инопланетянин человек

Внимание! Время в таблицах - всемирное. Для получения местного времени необходимо прибавить поправку, которая равна 1 ч.

Смотрите также архив погоды в соседних городах и на ближайших метеорологических станциях:

Погода в Гедсер Одде (Дания) (37 км)
Погода в Бранделеве (Дания) (42 км)
Погода в Абеде (Дания) (55 км)
Погода в Кёге (Дания) (58 км)
Погода в Барте (Германия) (67 км)
Погода в Тысофте (Дания) (68 км)
Погода в Фальстербу АМС (Швеция) (69 км)
Погода в Фальстербу (Швеция) (69 км)
Погода в Флаккебэрге (Дания) (70 км)
Погода в Мариенлойхте (Германия) (74 км)

Пояснения к столбцам:

Ветер - указаны скорость ветра в м/с - средняя за 10 мин, порывы в срок и между сроками (в фигурных скобках) и направление, откуда дует ветер: С - северный, СВ - северо-восточный, В - восточный, ЮВ - юго-восточный, Ю - южный, ЮЗ - юго-западный, З - западный, СЗ - северо-западный.
Видимость - горизонтальная дальность видимости в метрах или километрах. При видимости от 1 до 10 км при отсутствии осадков обычно наблюдается дымка, при ухудшении видимости до 1 км и менее - туман. В сухую погоду видимость может ухудшаться дымом, пылью или мглою.
Явления - указаны атмосферные явления, наблюдавшиеся в срок или в последний час перед сроком; фигурными скобками обозначены явления, наблюдавшиеся между сроками (за 1-3 часа до срока); квадратными скобками обозначены град или гололедные отложения с указанием их диаметра в мм.
Облачность - указаны через наклонную черту общая и нижняя облачность в баллах и высота нижней границы облаков в метрах; квадратными скобками обозначены формы облаков: Ci - перистые, Cs - перисто-слоистые, Cc - перисто-кучевые, Ac - высококучевые, As - высокослоистые, Sc - слоисто-кучевые, Ns - слоисто-дождевые, Cu - кучевые, Cb - кучево-дождевые. Подробнее классификацию облаков см. в Атласе облаков (PDF).
T - Температура воздуха - температура, измеренная на высоте 2 м над землей.
Td - Температура точки росы - температура, при понижении до которой содержащийся в воздухе водяной пар достигнет насыщения.
f - Относительная влажность воздуха - влажноcть воздуха, измеренная на высоте 2 м над землей.
Te - Эффективная температура - температура, которую ощущает одетый по сезону человек в тени. Характеристика душности погоды. При расчете учитывается влияние влажности воздуха и скорости ветра на теплоощущения человека.
Tes - Эффективная температура на солнце - температура, которую ощущает человек, с поправкой на солнечный нагрев. Характеристика знойности погоды. Зависит от высоты солнца над горизонтом, облачности и скорости ветра. Ночью, в пасмурную погоду, а также при ветре 12 м/с и более поправка равна нулю.
P - Атмосферное давление - приведенное к уровню моря атмосферное давление.
Po - Атмосферное давление - измеренное на уровне метеостанции атмосферное давление.
Tmin - Минимальная температура - минимум температуры воздуха на высоте 2 м над землей.
Tmax - Максимальная температура - максимум температуры воздуха на высоте 2 м над землей.
R - Количество осадков - Количество выпавших осадков за период времени, мм. При наведении курсора мыши на число - период времени, за который выпало указанное количество осадков.
R24 - Количество осадков - Количество выпавших осадков за 24 часа, мм.
S - Снежный покров - Высота снежного покрова, см. При наведении курсора мыши на число - состояние снежного покрова и степень покрытия местности в баллах.